| time (UTC) | temp F | wind direction | speed knots | gust knots | rain 1hr in | rain 24hr in | rain mn in | humidity % | barometer mb |
| 20260506004610 | 74 | 64 | 0.9 | 1.7 | 0.00 | 0.00 | 0.00 | 70 | 1004.0 |
| 20260506004106 | 74 | 72 | 0.0 | 1.7 | 0.00 | 0.00 | 0.00 | 70 | 1003.9 |
| 20260506003603 | 75 | 81 | 0.0 | 5.2 | 0.00 | 0.00 | 0.00 | 69 | 1004.2 |
| 20260506003059 | 75 | 71 | 0.0 | 0.9 | 0.00 | 0.00 | 0.00 | 69 | 1003.9 |
| 20260506002555 | 75 | 70 | 0.0 | 0.9 | 0.00 | 0.00 | 0.00 | 69 | 1004.0 |
| 20260506002051 | 76 | 74 | 0.0 | 1.7 | 0.00 | 0.00 | 0.00 | 68 | 1004.3 |
| 20260506001547 | 76 | 75 | 0.0 | 0.0 | 0.00 | 0.00 | 0.00 | 69 | 1003.8 |
| 20260506001045 | 77 | 73 | 0.0 | 0.0 | 0.00 | 0.00 | 0.00 | 68 | 1003.9 |
| 20260506000542 | 78 | 61 | 1.7 | 7.8 | 0.00 | 0.00 | 0.00 | 67 | 1003.7 |
| 20260506000039 | 78 | 74 | 0.0 | 0.9 | 0.00 | 0.00 | 0.00 | 66 | 1003.3 |
| 20260505235537 | 79 | 70 | 0.0 | 0.9 | 0.00 | 0.00 | 0.00 | 66 | 1003.3 |
| 20260505235034 | 79 | 339 | 0.9 | 1.7 | 0.00 | 0.00 | 0.00 | 65 | 1003.3 |
| 20260505234531 | 80 | 58 | 0.9 | 1.7 | 0.00 | 0.00 | 0.00 | 64 | 1003.4 |
| 20260505234028 | 80 | 68 | 1.7 | 2.6 | 0.00 | 0.00 | 0.00 | 64 | 1003.3 |
| 20260505233525 | 81 | 79 | 0.0 | 0.9 | 0.00 | 0.00 | 0.00 | 63 | 1003.0 |
| 20260505233023 | 82 | 74 | 0.9 | 0.9 | 0.00 | 0.00 | 0.00 | 62 | 1003.2 |
| 20260505232520 | 82 | 73 | 0.9 | 1.7 | 0.00 | 0.00 | 0.00 | 61 | 1003.1 |
| 20260505232018 | 83 | 73 | 0.0 | 5.2 | 0.00 | 0.00 | 0.00 | 60 | 1002.8 |
| 20260505231514 | 84 | 73 | 0.0 | 0.9 | 0.00 | 0.00 | 0.00 | 58 | 1002.8 |
| 20260505231013 | 85 | 62 | 0.9 | 0.9 | 0.00 | 0.00 | 0.00 | 55 | 1002.6 |
| 20260505230510 | 85 | 76 | 0.0 | 0.9 | 0.00 | 0.00 | 0.00 | 53 | 1002.5 |
| 20260505230007 | 85 | 69 | 0.0 | 0.9 | 0.00 | 0.00 | 0.00 | 51 | 1002.4 |
| 20260505225504 | 86 | 75 | 0.0 | 0.9 | 0.00 | 0.00 | 0.00 | 51 | 1002.3 |
| 20260505224959 | 87 | 73 | 0.0 | 2.6 | 0.00 | 0.00 | 0.00 | 49 | 1002.4 |
| 20260505224456 | 88 | 73 | 0.0 | 0.0 | 0.00 | 0.00 | 0.00 | 48 | 1002.5 |
| 20260505223954 | 89 | 41 | 0.9 | 4.3 | 0.00 | 0.00 | 0.00 | 47 | 1002.3 |
| 20260505223450 | 91 | 60 | 0.0 | 0.0 | 0.00 | 0.00 | 0.00 | 46 | 1002.4 |
| 20260505222947 | 92 | 76 | 0.0 | 0.9 | 0.00 | 0.00 | 0.00 | 48 | 1002.0 |
| 20260505222443 | 91 | 101 | 0.9 | 1.7 | 0.00 | 0.00 | 0.00 | 52 | 1001.6 |
| 20260505221939 | 91 | 69 | 0.9 | 2.6 | 0.00 | 0.00 | 0.00 | 51 | 1001.7 |
| 20260505221437 | 93 | 79 | 1.7 | 1.7 | 0.00 | 0.00 | 0.00 | 50 | 1001.6 |
| 20260505220934 | 92 | 66 | 0.0 | 0.9 | 0.00 | 0.00 | 0.00 | 53 | 1001.5 |
| 20260505220430 | 91 | 67 | 0.0 | 0.0 | 0.00 | 0.00 | 0.00 | 53 | 1001.5 |
| 20260505215928 | 90 | 72 | 0.0 | 1.7 | 0.00 | 0.00 | 0.00 | 55 | 1001.8 |
| 20260505215426 | 90 | 75 | 0.9 | 0.9 | 0.00 | 0.00 | 0.00 | 54 | 1002.0 |
| 20260505214924 | 91 | 202 | 1.7 | 2.6 | 0.00 | 0.00 | 0.00 | 53 | 1001.9 |
| 20260505214421 | 92 | 77 | 0.0 | 0.9 | 0.00 | 0.00 | 0.00 | 52 | 1002.0 |
| 20260505213918 | 93 | 217 | 0.9 | 4.3 | 0.00 | 0.00 | 0.00 | 51 | 1002.2 |
| 20260505213416 | 92 | 71 | 0.0 | 0.9 | 0.00 | 0.00 | 0.00 | 53 | 1002.0 |
| 20260505212912 | 92 | 85 | 0.9 | 4.3 | 0.00 | 0.00 | 0.00 | 52 | 1002.0 |
| 20260505212409 | 91 | 81 | 0.0 | 0.9 | 0.00 | 0.00 | 0.00 | 52 | 1002.1 |
| 20260505211905 | 91 | 104 | 0.0 | 2.6 | 0.00 | 0.00 | 0.00 | 53 | 1002.3 |
| 20260505211403 | 91 | 103 | 0.9 | 2.6 | 0.00 | 0.00 | 0.00 | 54 | 1002.2 |
| 20260505210859 | 91 | 84 | 0.0 | 0.9 | 0.00 | 0.00 | 0.00 | 54 | 1002.4 |
| 20260505210356 | 91 | 221 | 0.9 | 1.7 | 0.00 | 0.00 | 0.00 | 56 | 1002.3 |
| 20260505205853 | 91 | 164 | 1.7 | 4.3 | 0.00 | 0.00 | 0.00 | 55 | 1002.1 |
| 20260505205351 | 90 | 87 | 0.9 | 1.7 | 0.00 | 0.00 | 0.00 | 58 | 1002.4 |
| 20260505204848 | 90 | 155 | 1.7 | 4.3 | 0.00 | 0.00 | 0.00 | 58 | 1002.3 |
| 20260505204346 | 90 | 80 | 0.0 | 2.6 | 0.00 | 0.00 | 0.00 | 58 | 1002.4 |
| 20260505203843 | 90 | 85 | 0.0 | 0.9 | 0.00 | 0.00 | 0.00 | 59 | 1002.6 |
| 20260505203339 | 90 | 248 | 0.9 | 1.7 | 0.00 | 0.00 | 0.00 | 58 | 1002.8 |
| 20260505202836 | 90 | 76 | 0.9 | 1.7 | 0.00 | 0.00 | 0.00 | 59 | 1003.1 |
| 20260505202332 | 90 | 155 | 0.0 | 5.2 | 0.00 | 0.00 | 0.00 | 57 | 1002.8 |
| 20260505201829 | 88 | 80 | 0.0 | 1.7 | 0.00 | 0.00 | 0.00 | 60 | 1002.6 |
| 20260505201326 | 89 | 136 | 0.9 | 1.7 | 0.00 | 0.00 | 0.00 | 61 | 1002.7 |
| 20260505200824 | 88 | 91 | 1.7 | 2.6 | 0.00 | 0.00 | 0.00 | 60 | 1002.8 |
| 20260505200321 | 88 | 190 | 1.7 | 1.7 | 0.00 | 0.00 | 0.00 | 59 | 1002.7 |
| 20260505195816 | 89 | 93 | 0.0 | 1.7 | 0.00 | 0.00 | 0.00 | 60 | 1002.8 |
| 20260505195314 | 88 | 79 | 0.0 | 0.9 | 0.00 | 0.00 | 0.00 | 60 | 1003.0 |
| 20260505194811 | 88 | 289 | 0.9 | 1.7 | 0.00 | 0.00 | 0.00 | 60 | 1002.8 |
| 20260505194308 | 88 | 109 | 0.9 | 1.7 | 0.00 | 0.00 | 0.00 | 59 | 1002.8 |
| 20260505193803 | 88 | 70 | 0.0 | 2.6 | 0.00 | 0.00 | 0.00 | 61 | 1003.1 |
| 20260505193301 | 88 | 43 | 0.9 | 1.7 | 0.00 | 0.00 | 0.00 | 62 | 1003.0 |
| 20260505192759 | 87 | 211 | 1.7 | 2.6 | 0.00 | 0.00 | 0.00 | 61 | 1002.7 |
| 20260505192257 | 87 | 89 | 0.0 | 2.6 | 0.00 | 0.00 | 0.00 | 62 | 1002.7 |
| 20260505191754 | 86 | 99 | 0.9 | 1.7 | 0.00 | 0.00 | 0.00 | 64 | 1002.8 |
| 20260505191253 | 86 | 95 | 2.6 | 4.3 | 0.00 | 0.00 | 0.00 | 63 | 1003.1 |
| 20260505190749 | 86 | 117 | 2.6 | 5.2 | 0.00 | 0.00 | 0.00 | 64 | 1002.7 |
| 20260505190244 | 86 | 197 | 2.6 | 5.2 | 0.00 | 0.00 | 0.00 | 64 | 1002.7 |
| 20260505185741 | 85 | 124 | 0.9 | 5.2 | 0.00 | 0.00 | 0.00 | 66 | 1003.1 |
| 20260505185237 | 85 | 140 | 0.9 | 1.7 | 0.00 | 0.00 | 0.00 | 66 | 1003.0 |
| 20260505184733 | 84 | 122 | 3.5 | 6.1 | 0.00 | 0.00 | 0.00 | 66 | 1003.1 |
| 20260505184231 | 84 | 144 | 1.7 | 4.3 | 0.00 | 0.00 | 0.00 | 66 | 1003.0 |
| 20260505183727 | 84 | 95 | 0.9 | 0.9 | 0.00 | 0.00 | 0.00 | 67 | 1003.2 |
| 20260505183225 | 84 | 85 | 0.9 | 4.3 | 0.00 | 0.00 | 0.00 | 68 | 1003.1 |
| 20260505182721 | 84 | 128 | 0.9 | 2.6 | 0.00 | 0.00 | 0.00 | 68 | 1003.2 |
| 20260505182218 | 84 | 95 | 0.9 | 7.8 | 0.00 | 0.00 | 0.00 | 68 | 1003.1 |
| 20260505181714 | 84 | 64 | 0.9 | 2.6 | 0.00 | 0.00 | 0.00 | 68 | 1003.1 |
| 20260505181212 | 84 | 43 | 0.9 | 5.2 | 0.00 | 0.00 | 0.00 | 67 | 1003.3 |
| 20260505180708 | 85 | 85 | 0.9 | 1.7 | 0.00 | 0.00 | 0.00 | 66 | 1003.1 |
| 20260505180205 | 84 | 46 | 1.7 | 4.3 | 0.00 | 0.00 | 0.00 | 66 | 1003.1 |
| 20260505175701 | 84 | 149 | 0.9 | 2.6 | 0.00 | 0.00 | 0.00 | 67 | 1003.1 |
| 20260505175157 | 83 | 82 | 0.9 | 2.6 | 0.00 | 0.00 | 0.00 | 68 | 1003.3 |
| 20260505174654 | 82 | 81 | 1.7 | 2.6 | 0.00 | 0.00 | 0.00 | 69 | 1003.0 |
| 20260505174150 | 82 | 49 | 2.6 | 6.1 | 0.00 | 0.00 | 0.00 | 69 | 1003.3 |
| 20260505173646 | 82 | 99 | 0.9 | 1.7 | 0.00 | 0.00 | 0.00 | 70 | 1003.2 |
| 20260505173143 | 82 | 112 | 0.9 | 2.6 | 0.00 | 0.00 | 0.00 | 70 | 1003.3 |
| 20260505172641 | 81 | 67 | 1.7 | 2.6 | 0.00 | 0.00 | 0.00 | 70 | 1003.3 |
| 20260505172137 | 81 | 130 | 0.9 | 5.2 | 0.00 | 0.00 | 0.00 | 70 | 1003.2 |
| 20260505171632 | 81 | 140 | 0.9 | 4.3 | 0.00 | 0.00 | 0.00 | 70 | 1003.2 |
| 20260505171130 | 81 | 83 | 0.0 | 2.6 | 0.00 | 0.00 | 0.00 | 71 | 1003.0 |
| 20260505170627 | 81 | 146 | 1.7 | 2.6 | 0.00 | 0.00 | 0.00 | 70 | 1003.5 |
| 20260505170123 | 81 | 108 | 0.0 | 0.9 | 0.00 | 0.00 | 0.00 | 71 | 1003.3 |
| 20260505165618 | 81 | 77 | 1.7 | 2.6 | 0.00 | 0.00 | 0.00 | 71 | 1003.3 |
| 20260505165114 | 81 | 109 | 3.5 | 5.2 | 0.00 | 0.00 | 0.00 | 70 | 1003.2 |
| 20260505164610 | 80 | 95 | 0.0 | 0.9 | 0.00 | 0.00 | 0.00 | 72 | 1003.5 |
| 20260505164108 | 80 | 249 | 1.7 | 2.6 | 0.00 | 0.00 | 0.00 | 72 | 1003.4 |
| 20260505163606 | 79 | 87 | 0.0 | 4.3 | 0.00 | 0.00 | 0.00 | 73 | 1003.5 |
| 20260505163103 | 79 | 102 | 1.7 | 2.6 | 0.00 | 0.00 | 0.00 | 73 | 1003.2 |
| 20260505162600 | 79 | 75 | 0.9 | 2.6 | 0.00 | 0.00 | 0.00 | 73 | 1003.5 |
| 20260505162058 | 79 | 88 | 0.9 | 7.0 | 0.00 | 0.00 | 0.00 | 73 | 1003.1 |
| 20260505161555 | 80 | 125 | 3.5 | 5.2 | 0.00 | 0.00 | 0.00 | 72 | 1003.2 |
| 20260505161052 | 79 | 296 | 0.9 | 2.6 | 0.00 | 0.00 | 0.00 | 73 | 1003.1 |
| 20260505160550 | 78 | 44 | 0.9 | 5.2 | 0.00 | 0.00 | 0.00 | 74 | 1003.0 |
| 20260505153026 | 78 | 45 | 0.9 | 2.6 | 0.00 | 0.00 | 0.00 | 76 | 1002.6 |
| 20260505152523 | 77 | 73 | 0.9 | 5.2 | 0.00 | 0.00 | 0.00 | 77 | 1002.4 |
| 20260505152019 | 77 | 66 | 0.9 | 2.6 | 0.00 | 0.00 | 0.00 | 77 | 1002.8 |
| 20260505151514 | 77 | 199 | 2.6 | 4.3 | 0.00 | 0.00 | 0.00 | 77 | 1002.8 |
| 20260505151012 | 77 | 82 | 1.7 | 6.1 | 0.00 | 0.00 | 0.00 | 77 | 1002.8 |
| 20260505150508 | 77 | 133 | 0.9 | 5.2 | 0.00 | 0.00 | 0.00 | 76 | 1002.8 |
| 20260505140433 | 74 | 101 | 0.9 | 2.6 | 0.00 | 0.00 | 0.00 | 82 | 1003.0 |
| 20260505124847 | 73 | 21 | 1.7 | 7.0 | 0.00 | 0.00 | 0.00 | 84 | 1002.7 |
| 20260505124343 | 72 | 127 | 0.9 | 6.1 | 0.00 | 0.00 | 0.00 | 84 | 1002.7 |
| 20260505123839 | 72 | 151 | 2.6 | 4.3 | 0.00 | 0.00 | 0.00 | 84 | 1002.5 |
| 20260505123336 | 72 | 134 | 1.7 | 5.2 | 0.00 | 0.00 | 0.00 | 84 | 1002.3 |
| 20260505122832 | 73 | 152 | 1.7 | 6.1 | 0.00 | 0.00 | 0.00 | 84 | 1002.4 |
| 20260505122330 | 72 | 73 | 0.0 | 1.7 | 0.00 | 0.00 | 0.00 | 84 | 1002.4 |
| 20260505121826 | 72 | 79 | 0.9 | 1.7 | 0.00 | 0.00 | 0.00 | 84 | 1002.3 |
| 20260505121324 | 72 | 143 | 0.9 | 1.7 | 0.00 | 0.00 | 0.00 | 84 | 1002.2 |
| 20260505120819 | 72 | 208 | 0.9 | 2.6 | 0.00 | 0.00 | 0.00 | 84 | 1002.2 |
| 20260505120316 | 72 | 90 | 0.9 | 0.9 | 0.00 | 0.00 | 0.00 | 84 | 1002.3 |
| 20260505115814 | 72 | 85 | 0.9 | 1.7 | 0.00 | 0.00 | 0.00 | 84 | 1002.1 |
| 20260505115312 | 72 | 105 | 1.7 | 2.6 | 0.00 | 0.00 | 0.00 | 84 | 1002.2 |
| 20260505114809 | 72 | 57 | 0.9 | 1.7 | 0.00 | 0.00 | 0.00 | 84 | 1002.2 |
| 20260505114306 | 72 | 148 | 3.5 | 5.2 | 0.00 | 0.00 | 0.00 | 84 | 1002.0 |
| 20260505113802 | 72 | 159 | 3.5 | 6.1 | 0.00 | 0.00 | 0.00 | 84 | 1002.2 |
| 20260505113259 | 72 | 254 | 0.9 | 5.2 | 0.00 | 0.00 | 0.00 | 84 | 1002.0 |
| 20260505112754 | 72 | 82 | 0.9 | 1.7 | 0.00 | 0.00 | 0.00 | 85 | 1002.0 |
| 20260505112252 | 71 | 123 | 1.7 | 2.6 | 0.00 | 0.00 | 0.00 | 85 | 1001.8 |
| 20260505111747 | 71 | 117 | 0.9 | 1.7 | 0.00 | 0.00 | 0.00 | 86 | 1002.0 |
| 20260505111243 | 71 | 104 | 0.0 | 1.7 | 0.00 | 0.00 | 0.00 | 86 | 1001.8 |
| 20260505110739 | 71 | 79 | 0.9 | 4.3 | 0.00 | 0.00 | 0.00 | 85 | 1001.9 |
| 20260505110237 | 71 | 87 | 0.9 | 2.6 | 0.00 | 0.00 | 0.00 | 85 | 1001.9 |
| 20260505102212 | 72 | 127 | 3.5 | 5.2 | 0.00 | 0.00 | 0.00 | 84 | 1001.9 |
| 20260505101711 | 72 | 116 | 0.9 | 1.7 | 0.00 | 0.00 | 0.00 | 84 | 1001.8 |
| 20260505101206 | 72 | 82 | 0.0 | 2.6 | 0.00 | 0.00 | 0.00 | 84 | 1002.1 |
| 20260505100703 | 72 | 154 | 2.6 | 2.6 | 0.00 | 0.00 | 0.00 | 85 | 1001.9 |
| 20260505100200 | 72 | 79 | 0.9 | 1.7 | 0.00 | 0.00 | 0.00 | 85 | 1002.0 |
| 20260505095655 | 72 | 128 | 1.7 | 2.6 | 0.00 | 0.00 | 0.00 | 85 | 1001.8 |
| 20260505095154 | 72 | 115 | 2.6 | 2.6 | 0.00 | 0.00 | 0.00 | 85 | 1001.9 |
| 20260505094649 | 71 | 69 | 0.9 | 1.7 | 0.00 | 0.00 | 0.00 | 85 | 1002.1 |
| 20260505094146 | 71 | 146 | 4.3 | 7.0 | 0.00 | 0.00 | 0.00 | 85 | 1002.0 |
| 20260505093642 | 71 | 66 | 0.9 | 2.6 | 0.00 | 0.00 | 0.00 | 85 | 1002.1 |
| 20260505093140 | 71 | 95 | 0.0 | 1.7 | 0.00 | 0.00 | 0.00 | 85 | 1002.1 |
| 20260505092636 | 71 | 173 | 1.7 | 2.6 | 0.00 | 0.00 | 0.00 | 85 | 1002.3 |
| 20260505092135 | 71 | 70 | 0.9 | 1.7 | 0.00 | 0.00 | 0.00 | 85 | 1002.2 |
| 20260505091632 | 71 | 80 | 0.9 | 1.7 | 0.00 | 0.00 | 0.00 | 86 | 1002.6 |
| 20260505091130 | 71 | 106 | 0.9 | 2.6 | 0.00 | 0.00 | 0.00 | 86 | 1002.4 |
| 20260505090627 | 71 | 83 | 0.9 | 0.9 | 0.00 | 0.00 | 0.00 | 86 | 1002.4 |
| 20260505090125 | 71 | 118 | 2.6 | 2.6 | 0.00 | 0.00 | 0.00 | 86 | 1002.2 |
| 20260505085622 | 71 | 127 | 0.9 | 1.7 | 0.00 | 0.00 | 0.00 | 86 | 1002.3 |
| 20260505085120 | 71 | 104 | 0.9 | 1.7 | 0.00 | 0.00 | 0.00 | 86 | 1002.3 |
| 20260505084618 | 71 | 107 | 0.9 | 4.3 | 0.00 | 0.00 | 0.00 | 86 | 1002.2 |
| 20260505084116 | 71 | 113 | 0.9 | 1.7 | 0.00 | 0.00 | 0.00 | 85 | 1002.4 |
| 20260505083613 | 71 | 119 | 1.7 | 7.8 | 0.00 | 0.00 | 0.00 | 85 | 1002.5 |
| 20260505083110 | 71 | 88 | 0.9 | 1.7 | 0.00 | 0.00 | 0.00 | 85 | 1002.4 |
| 20260505082605 | 71 | 79 | 0.9 | 4.3 | 0.00 | 0.00 | 0.00 | 85 | 1002.4 |
| 20260505082103 | 71 | 112 | 2.6 | 5.2 | 0.00 | 0.00 | 0.00 | 85 | 1002.4 |
| 20260505081559 | 71 | 97 | 0.0 | 2.6 | 0.00 | 0.00 | 0.00 | 85 | 1002.4 |
| 20260505081056 | 71 | 151 | 0.9 | 5.2 | 0.00 | 0.00 | 0.00 | 84 | 1002.3 |
| 20260505080552 | 71 | 134 | 1.7 | 2.6 | 0.00 | 0.00 | 0.00 | 84 | 1002.3 |
| 20260505080049 | 71 | 159 | 0.9 | 2.6 | 0.00 | 0.00 | 0.00 | 84 | 1002.6 |
| 20260505075545 | 71 | 90 | 0.9 | 2.6 | 0.00 | 0.00 | 0.00 | 84 | 1002.6 |
| 20260505075042 | 71 | 105 | 0.9 | 4.3 | 0.00 | 0.00 | 0.00 | 83 | 1002.7 |
| 20260505074539 | 71 | 110 | 0.0 | 1.7 | 0.00 | 0.00 | 0.00 | 83 | 1002.8 |
| 20260505074036 | 72 | 91 | 0.9 | 5.2 | 0.00 | 0.00 | 0.00 | 83 | 1002.7 |
| 20260505073533 | 72 | 109 | 0.9 | 4.3 | 0.00 | 0.00 | 0.00 | 83 | 1003.2 |
| 20260505073032 | 72 | 116 | 0.9 | 6.1 | 0.00 | 0.00 | 0.00 | 82 | 1003.1 |
| 20260505072527 | 72 | 106 | 1.7 | 2.6 | 0.00 | 0.00 | 0.00 | 82 | 1003.2 |
| 20260505072024 | 72 | 91 | 0.9 | 2.6 | 0.00 | 0.00 | 0.00 | 82 | 1003.2 |
| 20260505071519 | 72 | 122 | 1.7 | 2.6 | 0.00 | 0.00 | 0.00 | 81 | 1003.2 |
| 20260505071018 | 72 | 159 | 1.7 | 4.3 | 0.00 | 0.00 | 0.00 | 81 | 1003.5 |
| 20260505070515 | 72 | 103 | 0.9 | 1.7 | 0.00 | 0.00 | 0.00 | 81 | 1003.3 |
| 20260505070010 | 72 | 121 | 1.7 | 2.6 | 0.00 | 0.00 | 0.00 | 80 | 1003.3 |
| 20260505065507 | 72 | 105 | 0.9 | 2.6 | 0.00 | 0.00 | 0.00 | 80 | 1003.5 |
| 20260505065003 | 73 | 95 | 0.9 | 5.2 | 0.00 | 0.00 | 0.00 | 80 | 1003.6 |
| 20260505064500 | 73 | 139 | 0.9 | 7.0 | 0.00 | 0.00 | 0.00 | 79 | 1003.8 |
| 20260505063959 | 73 | 138 | 1.7 | 4.3 | 0.00 | 0.00 | 0.00 | 79 | 1003.5 |
| 20260505063455 | 73 | 93 | 0.0 | 2.6 | 0.00 | 0.00 | 0.00 | 79 | 1003.7 |
| 20260505062951 | 73 | 85 | 2.6 | 7.0 | 0.00 | 0.00 | 0.00 | 78 | 1003.9 |
| 20260505062448 | 73 | 122 | 3.5 | 6.1 | 0.00 | 0.00 | 0.00 | 78 | 1003.7 |
| 20260505061945 | 73 | 116 | 1.7 | 4.3 | 0.00 | 0.00 | 0.00 | 78 | 1003.5 |
| 20260505061443 | 73 | 130 | 2.6 | 7.8 | 0.00 | 0.00 | 0.00 | 78 | 1003.7 |
| 20260505060940 | 73 | 126 | 1.7 | 5.2 | 0.00 | 0.00 | 0.00 | 78 | 1003.8 |
| 20260505060437 | 73 | 185 | 3.5 | 5.2 | 0.00 | 0.00 | 0.00 | 77 | 1003.7 |
| 20260505055934 | 73 | 151 | 1.7 | 6.1 | 0.00 | 0.00 | 0.00 | 77 | 1003.6 |
| 20260505055430 | 73 | 157 | 2.6 | 6.1 | 0.00 | 0.00 | 0.00 | 77 | 1003.6 |
| 20260505054927 | 73 | 105 | 1.7 | 4.3 | 0.00 | 0.00 | 0.00 | 76 | 1003.7 |
| 20260505054424 | 73 | 97 | 0.9 | 8.7 | 0.00 | 0.00 | 0.00 | 76 | 1004.0 |
| 20260505053922 | 73 | 102 | 0.9 | 5.2 | 0.00 | 0.00 | 0.00 | 76 | 1003.9 |
| 20260505053419 | 73 | 95 | 1.7 | 4.3 | 0.00 | 0.00 | 0.00 | 76 | 1003.9 |
| 20260505052916 | 73 | 133 | 1.7 | 6.1 | 0.00 | 0.00 | 0.00 | 75 | 1004.0 |
| 20260505052412 | 74 | 87 | 1.7 | 6.1 | 0.00 | 0.00 | 0.00 | 75 | 1004.2 |
| 20260505051910 | 74 | 140 | 3.5 | 7.0 | 0.00 | 0.00 | 0.00 | 75 | 1004.3 |
| 20260505051407 | 74 | 148 | 1.7 | 2.6 | 0.00 | 0.00 | 0.00 | 75 | 1004.3 |
| 20260505050905 | 74 | 115 | 1.7 | 2.6 | 0.00 | 0.00 | 0.00 | 75 | 1004.5 |
| 20260505050403 | 74 | 39 | 3.5 | 5.2 | 0.00 | 0.00 | 0.00 | 74 | 1004.2 |
| 20260505041330 | 75 | 123 | 1.7 | 5.2 | 0.00 | 0.00 | 0.00 | 72 | 1004.1 |
| 20260505040827 | 75 | 175 | 3.5 | 7.0 | 0.00 | 0.00 | 0.00 | 72 | 1004.4 |
| 20260505040325 | 75 | 146 | 1.7 | 2.6 | 0.00 | 0.00 | 0.00 | 72 | 1004.3 |
| 20260505035822 | 75 | 84 | 0.9 | 2.6 | 0.00 | 0.00 | 0.00 | 72 | 1004.5 |
| 20260505035317 | 75 | 117 | 0.9 | 1.7 | 0.00 | 0.00 | 0.00 | 71 | 1004.3 |
| 20260505034815 | 75 | 107 | 2.6 | 5.2 | 0.00 | 0.00 | 0.00 | 71 | 1004.6 |
| 20260505034311 | 75 | 113 | 2.6 | 4.3 | 0.00 | 0.00 | 0.00 | 71 | 1004.2 |
| 20260505033808 | 75 | 109 | 1.7 | 1.7 | 0.00 | 0.00 | 0.00 | 71 | 1004.4 |
| 20260505033305 | 75 | 78 | 0.9 | 5.2 | 0.00 | 0.00 | 0.00 | 71 | 1004.6 |
| 20260505032804 | 75 | 123 | 2.6 | 8.7 | 0.00 | 0.00 | 0.00 | 71 | 1004.6 |
| 20260505032259 | 75 | 78 | 0.9 | 1.7 | 0.00 | 0.00 | 0.00 | 70 | 1004.4 |
| 20260505031757 | 75 | 152 | 4.3 | 7.0 | 0.00 | 0.00 | 0.00 | 70 | 1004.4 |
| 20260505031253 | 75 | 130 | 3.5 | 5.2 | 0.00 | 0.00 | 0.00 | 70 | 1004.5 |
| 20260505030750 | 75 | 101 | 0.9 | 4.3 | 0.00 | 0.00 | 0.00 | 70 | 1004.2 |
| 20260505030247 | 75 | 100 | 0.9 | 11.3 | 0.00 | 0.00 | 0.00 | 70 | 1004.2 |
| 20260505025742 | 75 | 103 | 0.9 | 6.1 | 0.00 | 0.00 | 0.00 | 70 | 1004.5 |
| 20260505025240 | 75 | 87 | 0.9 | 6.1 | 0.00 | 0.00 | 0.00 | 70 | 1004.6 |
| 20260505024738 | 75 | 116 | 0.9 | 2.6 | 0.00 | 0.00 | 0.00 | 70 | 1004.6 |
| 20260505024235 | 75 | 113 | 0.9 | 1.7 | 0.00 | 0.00 | 0.00 | 70 | 1004.3 |
| 20260505023732 | 75 | 115 | 2.6 | 6.1 | 0.00 | 0.00 | 0.00 | 70 | 1004.4 |
| 20260505023230 | 75 | 99 | 0.9 | 6.1 | 0.00 | 0.00 | 0.00 | 69 | 1004.5 |
| 20260505022727 | 75 | 133 | 1.7 | 5.2 | 0.00 | 0.00 | 0.00 | 69 | 1004.7 |
| 20260505022224 | 75 | 132 | 2.6 | 6.1 | 0.00 | 0.00 | 0.00 | 69 | 1004.6 |
| 20260505021720 | 76 | 111 | 1.7 | 7.0 | 0.00 | 0.00 | 0.00 | 69 | 1004.4 |
| 20260505021218 | 76 | 74 | 0.9 | 2.6 | 0.00 | 0.00 | 0.00 | 69 | 1004.4 |
| 20260505020713 | 76 | 95 | 0.0 | 1.7 | 0.00 | 0.00 | 0.00 | 68 | 1004.4 |
| 20260505020209 | 76 | 92 | 1.7 | 1.7 | 0.00 | 0.00 | 0.00 | 68 | 1004.4 |
| 20260505015706 | 76 | 79 | 0.9 | 2.6 | 0.00 | 0.00 | 0.00 | 68 | 1004.5 |
| 20260505015203 | 76 | 122 | 0.9 | 4.3 | 0.00 | 0.00 | 0.00 | 67 | 1004.5 |
| 20260505014700 | 76 | 130 | 3.5 | 7.0 | 0.00 | 0.00 | 0.00 | 67 | 1004.3 |
| 20260505014157 | 76 | 97 | 1.7 | 6.1 | 0.00 | 0.00 | 0.00 | 67 | 1004.4 |
| 20260505013654 | 76 | 116 | 2.6 | 7.0 | 0.00 | 0.00 | 0.00 | 67 | 1004.6 |
| 20260505013151 | 76 | 141 | 2.6 | 7.8 | 0.00 | 0.00 | 0.00 | 67 | 1004.4 |
| 20260505012649 | 77 | 90 | 0.9 | 4.3 | 0.00 | 0.00 | 0.00 | 67 | 1004.2 |
| 20260505012147 | 77 | 93 | 0.9 | 7.0 | 0.00 | 0.00 | 0.00 | 66 | 1004.3 |
| 20260505011642 | 77 | 117 | 0.9 | 9.6 | 0.00 | 0.00 | 0.00 | 66 | 1004.3 |
| 20260505011139 | 77 | 106 | 1.7 | 9.6 | 0.00 | 0.00 | 0.00 | 66 | 1004.4 |
| 20260505010640 | 77 | 80 | 0.9 | 2.6 | 0.00 | 0.00 | 0.00 | 66 | 1004.4 |
| 20260505010137 | 77 | 154 | 2.6 | 7.8 | 0.00 | 0.00 | 0.00 | 65 | 1004.1 |
| 20260505005633 | 77 | 165 | 2.6 | 11.3 | 0.00 | 0.00 | 0.00 | 65 | 1004.3 |
| 20260505005130 | 77 | 96 | 1.7 | 7.8 | 0.00 | 0.00 | 0.00 | 65 | 1004.2 |